This is the latest recevied weather packets stored in our database for station/object W6JCZ-13. If no packets are shown the sender has not sent any weather packets the latest 10 day(s).
| Time | Temp. | Humidity | Pressure | Rain* | Wind** | Luminosity | Snow |
|---|---|---|---|---|---|---|---|
| 1787823616 | 18.33° C | 67% | 1010 hPa | 0 mm | - | - | - |
| 1787823016 | 18.33° C | 66% | 1010 hPa | 0 mm | - | - | - |
| 1787822416 | 18.89° C | 65% | 1010.2 hPa | 0 mm | - | - | - |
| 1787821816 | 18.89° C | 65% | 1010.2 hPa | 0 mm | - | - | - |
| 1787821216 | 18.89° C | 66% | 1010.2 hPa | 0 mm | - | - | - |
| 1787820616 | 18.89° C | 64% | 1010.3 hPa | 0 mm | - | - | - |
| 1787820016 | 19.44° C | 64% | 1010.4 hPa | 0 mm | - | - | - |
| 1787819416 | 19.44° C | 63% | 1010.5 hPa | 0 mm | - | - | - |
| 1787818816 | 19.44° C | 63% | 1010.5 hPa | 0 mm | - | - | - |
| 1787818216 | 20° C | 63% | 1010.4 hPa | 0 mm | - | - | - |
| 1787817616 | 20° C | 63% | 1010.3 hPa | 0 mm | - | - | - |
| 1787817016 | 20° C | 64% | 1010.4 hPa | 0 mm | - | - | - |
| 1787816416 | 20° C | 66% | 1010.4 hPa | 0 mm | - | - | - |
| 1787815816 | 20.56° C | 64% | 1010.3 hPa | 0 mm | - | - | - |
| 1787815216 | 20.56° C | 63% | 1010.2 hPa | 0 mm | - | - | - |
| 1787814616 | 20.56° C | 64% | 1010.3 hPa | 0 mm | - | - | - |
| 1787814016 | 20.56° C | 65% | 1010.3 hPa | 0 mm | - | - | - |
| 1787813416 | 20.56° C | 64% | 1010.3 hPa | 0 mm | - | - | - |
| 1787812816 | 20.56° C | 65% | 1010.2 hPa | 0 mm | - | - | - |
| 1787812216 | 20.56° C | 65% | 1010.2 hPa | 0 mm | - | - | - |
| 1787811616 | 21.11° C | 67% | 1010.3 hPa | 0 mm | - | - | - |
| 1787811016 | 21.11° C | 62% | 1010.2 hPa | 0 mm | - | - | - |
| 1787810416 | 21.67° C | 61% | 1010.2 hPa | 0 mm | - | - | - |
| 1787809817 | 21.67° C | 59% | 1010.2 hPa | 0 mm | - | - | - |
| 1787809221 | 21.67° C | 59% | 1010.2 hPa | 0 mm | - | - | - |
* Rain latest hour (hover to see other rain measurements)
** Current wind speed in m/s (hover to see current wind gust speed)